Regional Weather Roundup
Issued by NWS

Home | Current Version | Previous Version | Text Only | Print | Product List | Glossary On
Versions: 1 2 3 4 5 6 7 8 9 10 11 12 13 14 15 16 17 18 19 20 21 22 23 24 25 26 27 28 29 30 31 32 33 34 35 36 37 38 39 40 41 42 43 44 45 46 47 48 49 50
000
ASPQ40 PGUM 232012
RWRPQ
WEATHER ROUNDUP FOR THE MARIANAS AND MICRONESIA
NATIONAL WEATHER SERVICE TIYAN GU
600 AM CHST FRI MAR 24 2017

GUZ001>004-232100-
MARIANA ISLANDS-

CITY           SKY/WX    TMP DP  RH WIND       PRES   REMARKS
GUAM AIRPORT   CLEAR     79  75  89 NE5       29.94R
ANDERSEN AFB   PTCLDY    77  73  88 E7        29.96R
ROTA AIRPORT   PTCLDY    75  72  88 E5        29.96
TINIAN AP      MOCLDY    77  73  88 E6        29.94
SAIPAN AP      MOCLDY    79  73  83 E7        29.94R

$$

PMZ161-232100-
REPUBLIC OF PALAU-

CITY           SKY/WX    TMP DP  RH WIND       PRES   REMARKS
KOROR AP       MOCLDY    77  75  94 CALM      29.87R
KOROR WSO      MOCLDY    79  75  89 CALM      29.88S

$$

PMZ171>174-232100-
FEDERATED STATES OF MICRONESIA-

CITY           SKY/WX    TMP DP  RH WIND       PRES   REMARKS
YAP AIRPORT    PTCLDY    81  77  89 VRB3      29.87S
CHUUK AP       CLOUDY    82  77  83 NE9       29.85R HX  91
POHNPEI AP     NOT AVBL
POHNPEI WSO    MOCLDY    75  75 100 S3        29.90R
KOSRAE AP      NOT AVBL

$$

PMZ181-232100-
REPUBLIC OF THE MARSHALL ISLANDS-

CITY           SKY/WX    TMP DP  RH WIND       PRES   REMARKS
KWAJALEIN AP   MOSUNNY   82  77  83 E16G23    29.88R HX  91
MAJURO AP      NOT AVBL
MAJURO WSO     MOSUNNY   84  77  79 NE12      29.86R HX  94

$$




USA.gov is the U.S. government's official web portal to all federal, state and local government web resources and services.